Weather in Tsementny

Russia / Sverdlovsk Oblast     57°28′55″N   60°09′38″E
temp.,
°C
wind,
m/s
gust,
m/s
humid.,
%
clouds,
%
prec.,
mm/h
press.,
hPa
HPBL,
m
26 july, mon
mon2623:00+12nw275749 0.0 1018325
02:00+8w227459 0.0 101933
05:00+11w2664100 0.0 1019156
08:00+13w3958100 0.0 1019509
11:00+17wnw563897 0.0 10182494
14:00+17wnw474694 0.0 10171994
17:00+18w674399 0.0 10162217
20:00+15w49566 0.0 1016653
27 july, tue
tue2723:00+12w310745 0.0 1016287
02:00+10wsw3128268 0.0 1015289
05:00+11sw4127311 0.0 1013369
08:00+12wsw41279100 0.1 1012694
11:00+12w4995100 1.6 1011616
14:00+16wnw587286 0.4 10111166
17:00+17w4856100 0.8 10101536
20:00+15nw585896 0.1 1010945
28 july, wed
wed2823:00+8wnw24855 0.1 101283
02:00+6w25925 0.0 101190
05:00+7w298868 0.0 1011234
08:00+11w4106697 0.0 10101078
11:00+14wnw695686 0.6 10091755
14:00+13nw695799 0.3 10101438
17:00+14wnw564652 0.4 10101899
20:00+11wnw47618 0.0 1012734
29 july, thu
thu2923:00+6w227687 0.0 101215
02:00+7sw2474100 0.0 101172
05:00+8e1180100 0.3 101014
08:00+10ssw2484100 0.1 1009284
11:00+17w375739 0.3 10081437
14:00+17wnw375669 0.4 10071056
17:00+21w5948100 0.4 10061790
20:00+16sw148562 1.1 100676
30 july, fri
fri3023:00+13wsw4129672 3.8 1006365
02:00+12wsw2109774 0.5 1005199
05:00+12wsw2109741 0.8 1005280
08:00+15wsw489399 0.2 1006414
11:00+19wsw3571100 0.2 1006763
14:00+21sw446526 0.0 10051012
17:00+23sw3455100 0.1 10031452
20:00+18sw2692100 1.6 1004154